Santiago, Chile

1:58 AM -03 en Septiembre 21, 2018 (GMT -0300)
Arturo Merino Benitez International

Tiempo Historia de SCEL - Julio, 2018

Change the Weather History Date:

Jueves, Julio 12, 2018

  Actual Average Record
Temperature  
Temperatura media 50 ° F -  
Temperatura máxima 65 ° F 59 ° F 95 ° F (1999)
Temperatura mínima 34 ° F 36 ° F 26 ° F (2000)
Degree Days  
Grados día de calefacción 16    
Moisture  
Punto de rocío 40 ° F    
Average Humidity 77    
Maximum Humidity 100    
Minimum Humidity 32    
Precipitación  
Precipitación 0.00 pul - - ()
Presión al nivel del mar  
Presión al nivel del mar 30.12 pul    
Viento  
Velocidad del viento 5 mph ()    
Velocidad máxima del viento 12 mph    
Max Gust Speed -    
Visibilidad 2.4 Millas    
Eventos Niebla    
Averages and records for this station are not official NWS values.
T = Trace of Precipitation, MM = Missing Value Source: Averaged Metar Reports

Daily Weather History Graph

Daily Weather History Graph

Search for Another Location

Airport or City:

Astronomía

Jul. 12, 2018 Salida Puesta
Hora real 7:45 AM -04 5:51 PM -04
Crepúsculo civil 7:18 AM -04 6:19 PM -04
Crepúsculo náutico 6:48 AM -04 6:49 PM -04
Crepúsculo astronómico 6:18 AM -04 7:19 PM -04
Luna 7:06 AM -04 (7/12) 5:36 PM -04 (7/12)
Horas de luz 11h 00m
Horas de luz
10h 06m
Creciente menguante, 0% of the Moon is Illuminated
Jul 12
Creciente menguante
Jul 12
Nueva
Jul 19
Cuarto creciente
Jul 27
Luna llena
Ago 4
Cuarto menguante

Hourly Weather History & Observations

Hora (-04) Temp. Vientos helados Punto de rocío Humedad Presión Visibilidad Wind Dir Velocidad del viento Velocidad de ráfagas Precip Eventos Condiciones
12:00 AM 39.2 ° F - 37.4 ° F 93% 30.15 pul 1.9 mi Variable 2.3 mph - N/A   Neblina
1:00 AM 41.0 ° F 38.0 ° F 39.2 ° F 93% 30.15 pul 2.5 mi Norte 4.6 mph - N/A   Neblina
2:00 AM 36 ° F - 36 ° F 100% 30.20 pul 0 mi NNE 4.6 mph - - Niebla Poca niebla
2:00 AM 35.6 ° F 31.7 ° F 35.6 ° F 100% 30.12 pul 0.5 mi NNE 4.6 mph - N/A Niebla Niebla
3:00 AM 39.2 ° F 35.9 ° F 39.2 ° F 100% 30.12 pul 0.5 mi SE 4.6 mph - N/A Niebla Niebla
4:00 AM 35.6 ° F 29.9 ° F 33.8 ° F 93% 30.12 pul 0.3 mi ONO 6.9 mph - N/A Niebla Niebla
5:00 AM 33.8 ° F 27.0 ° F 33.8 ° F 100% 30.12 pul 0.3 mi NE 8.1 mph - N/A Niebla Niebla
6:00 AM 37.4 ° F 33.8 ° F 37.4 ° F 100% 30.12 pul 0.3 mi Norte 4.6 mph - N/A Niebla Niebla
7:00 AM 39.2 ° F 35.9 ° F 37.4 ° F 93% 30.09 pul 0.5 mi Norte 4.6 mph - N/A Niebla Niebla
8:00 AM 38 ° F - 37 ° F 94% 30.19 pul 0 mi SO 9.2 mph - - Niebla Bancos de niebla
8:00 AM 39.2 ° F 33.0 ° F 37.4 ° F 93% 30.12 pul 0.9 mi SO 9.2 mph - N/A Niebla Bancos de niebla
9:00 AM 42.8 ° F 36.6 ° F 41.0 ° F 93% 30.15 pul 1.2 mi SE 11.5 mph - N/A   Neblina
10:00 AM 44.6 ° F 41.4 ° F 41.0 ° F 87% 30.18 pul 1.9 mi ONO 5.8 mph - N/A   Neblina
11:00 AM 50.0 ° F - 44.6 ° F 82% 30.18 pul 1.9 mi NE 5.8 mph - N/A   Bruma
12:00 PM 53.6 ° F - 42.8 ° F 67% 30.15 pul 2.5 mi Norte 4.6 mph - N/A   Bruma
12:07 PM - - - N/A% - 2.5 mi SSO 4.6 mph - N/A Niebla Niebla
1:00 PM 57.2 ° F - 42.8 ° F 59% 30.15 pul 3.1 mi Variable 2.3 mph - N/A   Bruma
2:00 PM 60 ° F - 44 ° F 44% 30.12 pul 4 mi Norte 5.8 mph - -   Bruma
2:00 PM 59.0 ° F - 44.6 ° F 59% 30.12 pul 3.7 mi Norte 5.8 mph - N/A   Desconocido
3:00 PM 62.6 ° F - 41.0 ° F 45% 30.06 pul 5.0 mi Norte 8.1 mph - N/A   Desconocido
4:00 PM 66.2 ° F - 35.6 ° F 32% 30.06 pul 5.0 mi NNE 5.8 mph - N/A   Desconocido
5:00 PM 62.6 ° F - 42.8 ° F 48% 30.06 pul 5.0 mi Sur 5.8 mph - N/A   Desconocido
6:00 PM 57.2 ° F - 44.6 ° F 63% 30.09 pul 5.0 mi Sur 9.2 mph - N/A   Desconocido
7:00 PM 57.2 ° F - 42.8 ° F 59% 30.09 pul 5.0 mi SO 3.5 mph - N/A   Desconocido
8:00 PM 55 ° F - 43 ° F 54% 30.11 pul 4 mi NNE 3.5 mph - -   Bruma
8:00 PM 55.4 ° F - 42.8 ° F 63% 30.09 pul 3.7 mi NNE 3.5 mph - N/A   Desconocido
9:00 PM 48.2 ° F - 42.8 ° F 82% 30.09 pul 3.1 mi Variable 1.2 mph - N/A   Bruma
10:00 PM 50.0 ° F - 42.8 ° F 76% 30.12 pul 2.5 mi NNO 3.5 mph - N/A   Bruma
11:00 PM 46.4 ° F 43.5 ° F 41.0 ° F 81% 30.12 pul 3.1 mi NNE 5.8 mph - N/A   Bruma